Change the Weather History Date:

Saturday, April 27, 2013

  Actual Average Record
Temperature  
Mean Temperature 55 °F -  
Max Temperature 71 °F 60 °F 78 °F (2004)
Min Temperature 39 °F 38 °F 28 °F (2004)
Degree Days  
Heating Degree Days 10    
Growing Degree Days 5 (Base 50)    
Moisture  
Dew Point 35 °F    
Average Humidity 47    
Maximum Humidity 75    
Minimum Humidity 22    
Precipitation  
Precipitation 0.00 in - - ()
Sea Level Pressure  
Sea Level Pressure 30.03 in    
Wind  
Wind Speed 3 mph (South)    
Max Wind Speed 14 mph    
Max Gust Speed 9 mph    
Visibility 10 miles    
Events      
Averages and records for this station are not official NWS values.
T = Trace of Precipitation, MM = Missing Value Source: NWS Daily Summary

Daily Weather History Graph

Daily Weather History Graph

Search for Another Location

Airport or City:

Trip Planner

Search our weather history database for the weather conditions in past years. The results will help you decide how hot, cold, wet, or windy it might be!

Date:

Astronomy

Apr. 27, 2013 Rise Set
Actual Time 6:22 AM CDT 8:24 PM CDT
Civil Twilight 5:51 AM CDT 8:55 PM CDT
Nautical Twilight 5:12 AM CDT 9:33 PM CDT
Astronomical Twilight 4:30 AM CDT 10:16 PM CDT
Moon 10:58 PM CDT (4/27) 7:38 AM CDT (4/27)
Length of Visible Light 15h 04m
Length of Day
14h 01m
Waning Gibbous, 95% of the Moon is Illuminated
Apr 27
Waning Gibbous
May 2
Last Quarter
May 9
New
May 17
First Quarter
May 24
Full

Hourly Weather History & Observations

Time (CDT) Temp. Windchill Dew Point Humidity Pressure Visibility Wind Dir Wind Speed Gust Speed Precip Events Conditions
12:13 AM 48.2 °F - 35.6 °F 62% 30.16 in 10.0 mi Calm Calm - N/A   Clear
12:33 AM 44.6 °F - 35.6 °F 71% 30.16 in 10.0 mi Calm Calm - N/A   Clear
12:53 AM 46.4 °F - 35.6 °F 66% 30.16 in 10.0 mi Calm Calm - N/A   Clear
1:13 AM 46.4 °F - 35.6 °F 66% 30.16 in 10.0 mi Calm Calm - N/A   Clear
1:33 AM 46.4 °F - 35.6 °F 66% 30.15 in 10.0 mi Calm Calm - N/A   Clear
1:53 AM 46.4 °F - 35.6 °F 66% 30.15 in 10.0 mi Calm Calm - N/A   Clear
2:14 AM 44.6 °F - 35.6 °F 71% 30.15 in 10.0 mi Calm Calm - N/A   Clear
2:33 AM 46.4 °F - 35.6 °F 66% 30.14 in 10.0 mi Calm Calm - N/A   Clear
2:53 AM 44.6 °F - 33.8 °F 66% 30.13 in 10.0 mi Calm Calm - N/A   Clear
3:13 AM 48.2 °F - 33.8 °F 58% 30.13 in 10.0 mi South 3.5 mph - N/A   Clear
3:33 AM 44.6 °F - 32.0 °F 61% 30.12 in 10.0 mi Calm Calm - N/A   Clear
3:53 AM 44.6 °F - 33.8 °F 66% 30.12 in 10.0 mi Calm Calm - N/A   Clear
4:13 AM 44.6 °F - 32.0 °F 61% 30.12 in 10.0 mi Calm Calm - N/A   Clear
4:33 AM 41.0 °F 37.1 °F 32.0 °F 70% 30.12 in 10.0 mi South 5.8 mph - N/A   Clear
4:53 AM 39.2 °F 35.0 °F 32.0 °F 75% 30.12 in 10.0 mi South 5.8 mph - N/A   Clear
5:13 AM 39.2 °F - 32.0 °F 75% 30.11 in 10.0 mi Calm Calm - N/A   Clear
5:33 AM 39.2 °F - 32.0 °F 75% 30.11 in 10.0 mi Calm Calm - N/A   Clear
5:53 AM 39.2 °F - 32.0 °F 75% 30.10 in 10.0 mi Calm Calm - N/A   Clear
6:13 AM 42.8 °F - 32.0 °F 66% 30.10 in 10.0 mi Calm Calm - N/A   Clear
6:34 AM 44.6 °F 43.1 °F 32.0 °F 61% 30.10 in 10.0 mi South 3.5 mph - N/A   Clear
6:53 AM 46.4 °F - 32.0 °F 57% 30.10 in 10.0 mi Calm Calm - N/A   Clear
7:13 AM 44.6 °F - 32.0 °F 61% 30.10 in 10.0 mi Calm Calm - N/A   Clear
7:33 AM 44.6 °F - 33.8 °F 66% 30.10 in 10.0 mi Calm Calm - N/A   Clear
7:53 AM 44.6 °F - 35.6 °F 71% 30.10 in 10.0 mi Calm Calm - N/A   Clear
8:13 AM 48.2 °F - 37.4 °F 66% 30.10 in 10.0 mi Calm Calm - N/A   Clear
8:33 AM 50.0 °F - 39.2 °F 66% 30.10 in 10.0 mi Calm Calm - N/A   Clear
8:53 AM 51.8 °F - 39.2 °F 62% 30.10 in 10.0 mi Calm Calm - N/A   Clear
9:13 AM 53.6 °F - 39.2 °F 58% 30.09 in 10.0 mi SSW 3.5 mph - N/A   Clear
9:33 AM 55.4 °F - 41.0 °F 58% 30.08 in 10.0 mi South 6.9 mph - N/A   Clear
9:53 AM 59.0 °F - 39.2 °F 48% 30.08 in 10.0 mi SSW 6.9 mph - N/A   Clear
10:13 AM 60.8 °F - 41.0 °F 48% 30.08 in 10.0 mi South 8.1 mph - N/A   Clear
10:34 AM 60.8 °F - 39.2 °F 45% 30.07 in 10.0 mi South 9.2 mph - N/A   Clear
10:53 AM 62.6 °F - 39.2 °F 42% 30.08 in 10.0 mi SSW 6.9 mph - N/A   Clear
11:13 AM 62.6 °F - 37.4 °F 39% 30.07 in 10.0 mi SSW 10.4 mph - N/A   Clear
11:33 AM 64.4 °F - 37.4 °F 37% 30.07 in 10.0 mi SSW 8.1 mph - N/A   Clear
11:53 AM 64.4 °F - 37.4 °F 37% 30.07 in 10.0 mi SSW 8.1 mph - N/A   Clear
12:13 PM 64.4 °F - 37.4 °F 37% 30.06 in 10.0 mi South 8.1 mph - N/A   Clear
12:33 PM 66.2 °F - 37.4 °F 35% 30.06 in 10.0 mi SW 5.8 mph - N/A   Clear
12:53 PM 66.2 °F - 37.4 °F 35% 30.05 in 10.0 mi South 4.6 mph - N/A   Scattered Clouds
1:13 PM 68.0 °F - 35.6 °F 30% 30.04 in 10.0 mi South 8.1 mph - N/A   Clear
1:33 PM 68.0 °F - 35.6 °F 30% 30.03 in 10.0 mi South 5.8 mph 9.2 mph N/A   Clear
1:53 PM 69.8 °F - 35.6 °F 28% 30.02 in 10.0 mi South 9.2 mph - N/A   Clear
2:13 PM 71.6 °F - 33.8 °F 25% 30.01 in 10.0 mi SSW 6.9 mph - N/A   Clear
2:33 PM 69.8 °F - 32.0 °F 25% 30.00 in 10.0 mi SW 4.6 mph - N/A   Clear
2:53 PM 71.6 °F - 32.0 °F 23% 30.00 in 10.0 mi SSW 4.6 mph - N/A   Clear
3:13 PM 71.6 °F - 32.0 °F 23% 29.99 in 10.0 mi Calm Calm - N/A   Clear
3:33 PM 71.6 °F - 32.0 °F 23% 29.98 in 10.0 mi West 3.5 mph - N/A   Clear
3:53 PM 71.6 °F - 33.8 °F 25% 29.97 in 10.0 mi South 8.1 mph - N/A   Clear
4:13 PM 71.6 °F - 30.2 °F 22% 29.96 in 10.0 mi South 3.5 mph - N/A   Clear
4:33 PM 71.6 °F - 30.2 °F 22% 29.96 in 10.0 mi SW 3.5 mph - N/A   Clear
4:53 PM 71.6 °F - 32.0 °F 23% 29.94 in 10.0 mi South 8.1 mph - N/A   Clear
5:13 PM 71.6 °F - 33.8 °F 25% 29.94 in 10.0 mi SSW 10.4 mph - N/A   Clear
5:33 PM 71.6 °F - 30.2 °F 22% 29.93 in 10.0 mi SSE 4.6 mph - N/A   Clear
5:54 PM 71.6 °F - 33.8 °F 25% 29.93 in 10.0 mi South 9.2 mph - N/A   Clear
6:13 PM 71.6 °F - 35.6 °F 27% 29.92 in 10.0 mi South 5.8 mph - N/A   Clear
6:33 PM 71.6 °F - 33.8 °F 25% 29.92 in 10.0 mi South 6.9 mph - N/A   Clear
6:54 PM 71.6 °F - 35.6 °F 27% 29.91 in 10.0 mi South 8.1 mph - N/A   Clear
7:13 PM 69.8 °F - 35.6 °F 28% 29.91 in 10.0 mi South 4.6 mph - N/A   Clear
7:33 PM 68.0 °F - 35.6 °F 30% 29.91 in 10.0 mi SSE 5.8 mph - N/A   Clear
7:53 PM 66.2 °F - 37.4 °F 35% 29.91 in 10.0 mi SSE 5.8 mph - N/A   Clear
8:13 PM 66.2 °F - 35.6 °F 32% 29.89 in 10.0 mi SSE 8.1 mph - N/A   Clear
8:34 PM 64.4 °F - 35.6 °F 34% 29.90 in 10.0 mi South 6.9 mph - N/A   Clear
8:53 PM 62.6 °F - 33.8 °F 34% 29.90 in 10.0 mi South 9.2 mph - N/A   Clear
9:13 PM 62.6 °F - 33.8 °F 34% 29.89 in 10.0 mi South 9.2 mph - N/A   Clear
9:33 PM 62.6 °F - 33.8 °F 34% 29.89 in 10.0 mi South 10.4 mph - N/A   Clear
9:53 PM 60.8 °F - 35.6 °F 39% 29.89 in 10.0 mi South 11.5 mph - N/A   Clear
10:13 PM 59.0 °F - 37.4 °F 45% 29.88 in 10.0 mi South 12.7 mph - N/A   Clear
10:33 PM 55.4 °F - 39.2 °F 54% 29.88 in 10.0 mi South 11.5 mph - N/A   Clear
10:53 PM 55.4 °F - 39.2 °F 54% 29.88 in 10.0 mi South 13.8 mph - N/A   Clear
11:13 PM 55.4 °F - 41.0 °F 58% 29.88 in 10.0 mi South 12.7 mph - N/A   Clear
11:33 PM 55.4 °F - 42.8 °F 63% 29.87 in 10.0 mi South 12.7 mph - N/A   Clear
11:53 PM 53.6 °F - 42.8 °F 67% 29.87 in 10.0 mi South 11.5 mph - N/A   Clear